| time (UTC) | temp C | wind direction | speed KPH | gust KPH | rain 1hr cm | rain 24hr cm | rain mn cm | humidity % | barometer mb |
| 20260509224549 | 13 | 275 | 4.8 | 16.1 | 0.00 | 0.46 | 0.46 | 86 | 1008.4 |
| 20260509223038 | 12 | 237 | 4.8 | 14.5 | 0.00 | 0.46 | 0.46 | 87 | 1008.4 |
| 20260509221558 | 12 | 199 | 6.4 | 16.1 | 0.00 | 0.46 | 0.46 | 87 | 1008.5 |
| 20260509220042 | 12 | 214 | 3.2 | 19.3 | 0.00 | 0.46 | 0.46 | 87 | 1008.4 |
| 20260509214538 | 13 | 190 | 6.4 | 17.7 | 0.00 | 0.46 | 0.46 | 84 | 1008.3 |
| 20260509213038 | 13 | 222 | 6.4 | 24.1 | 0.00 | 0.46 | 0.46 | 85 | 1008.5 |
| 20260509211538 | 12 | 202 | 6.4 | 17.7 | 0.00 | 0.46 | 0.46 | 87 | 1008.5 |
| 20260509210036 | 12 | 176 | 4.8 | 12.9 | 0.00 | 0.46 | 0.46 | 88 | 1008.8 |
| 20260509204543 | 12 | 232 | 4.8 | 16.1 | 0.00 | 0.46 | 0.46 | 89 | 1008.9 |
| 20260509203039 | 12 | 178 | 4.8 | 16.1 | 0.00 | 0.46 | 0.46 | 89 | 1009.0 |
| 20260509201548 | 12 | 200 | 4.8 | 16.1 | 0.00 | 0.46 | 0.46 | 88 | 1009.1 |
| 20260509200045 | 12 | 192 | 4.8 | 14.5 | 0.00 | 0.46 | 0.46 | 89 | 1009.2 |
| 20260509194537 | 12 | 226 | 4.8 | 11.3 | 0.00 | 0.46 | 0.46 | 90 | 1009.3 |
| 20260509193038 | 11 | 245 | 1.6 | 6.4 | 0.00 | 0.46 | 0.46 | 91 | 1009.5 |
| 20260509191536 | 11 | 235 | 3.2 | 17.7 | 0.00 | 0.46 | 0.46 | 91 | 1009.7 |
| 20260509190041 | 11 | 227 | 4.8 | 14.5 | 0.00 | 0.46 | 0.46 | 90 | 1009.8 |
| 20260509184537 | 11 | 186 | 3.2 | 9.7 | 0.00 | 0.46 | 0.46 | 91 | 1010.0 |
| 20260509183055 | 11 | 209 | 3.2 | 8.0 | 0.00 | 0.46 | 0.46 | 92 | 1009.9 |
| 20260509181540 | 11 | 215 | 4.8 | 12.9 | 0.00 | 0.46 | 0.46 | 91 | 1009.9 |
| 20260509180038 | 11 | 217 | 4.8 | 11.3 | 0.00 | 0.46 | 0.46 | 92 | 1009.9 |
| 20260509174535 | 11 | 0 | 3.2 | 8.0 | 0.00 | 0.46 | 0.46 | 92 | 1009.9 |
| 20260509173042 | 11 | 223 | 1.6 | 11.3 | 0.00 | 0.46 | 0.46 | 92 | 1009.9 |
| 20260509171542 | 11 | 182 | 4.8 | 12.9 | 0.00 | 0.46 | 0.46 | 90 | 1009.8 |
| 20260509170037 | 11 | 178 | 3.2 | 12.9 | 0.00 | 0.46 | 0.46 | 92 | 1009.8 |
| 20260509164547 | 11 | 205 | 4.8 | 12.9 | 0.00 | 0.46 | 0.46 | 92 | 1010.0 |
| 20260509163041 | 10 | 236 | 3.2 | 11.3 | 0.03 | 0.46 | 0.46 | 94 | 1010.1 |
| 20260509161538 | 10 | 219 | 1.6 | 11.3 | 0.03 | 0.46 | 0.46 | 96 | 1010.3 |
| 20260509160038 | 10 | 220 | 3.2 | 12.9 | 0.03 | 0.46 | 0.46 | 96 | 1010.4 |
| 20260509154537 | 10 | 213 | 4.8 | 11.3 | 0.03 | 0.46 | 0.46 | 95 | 1010.6 |
| 20260509153036 | 10 | 180 | 3.2 | 11.3 | 0.00 | 0.43 | 0.43 | 96 | 1010.5 |
| 20260509151538 | 9 | 208 | 3.2 | 11.3 | 0.00 | 0.43 | 0.43 | 96 | 1010.7 |
| 20260509150037 | 9 | 202 | 1.6 | 17.7 | 0.00 | 0.43 | 0.43 | 97 | 1010.6 |
| 20260509144539 | 9 | 216 | 3.2 | 12.9 | 0.03 | 0.51 | 0.43 | 97 | 1010.6 |
| 20260509143037 | 9 | 207 | 3.2 | 9.7 | 0.03 | 0.51 | 0.43 | 97 | 1010.8 |
| 20260509141537 | 8 | 191 | 3.2 | 11.3 | 0.05 | 0.51 | 0.43 | 97 | 1010.8 |
| 20260509140037 | 8 | 221 | 3.2 | 11.3 | 0.08 | 0.51 | 0.43 | 98 | 1010.9 |
| 20260509134545 | 8 | 226 | 1.6 | 11.3 | 0.05 | 0.79 | 0.41 | 98 | 1011.0 |
| 20260509133039 | 8 | 206 | 3.2 | 8.0 | 0.08 | 0.79 | 0.41 | 98 | 1011.1 |
| 20260509131548 | 8 | 140 | 1.6 | 6.4 | 0.08 | 0.76 | 0.38 | 98 | 1011.2 |
| 20260509130040 | 8 | 194 | 3.2 | 8.0 | 0.08 | 0.74 | 0.36 | 98 | 1011.3 |
| 20260509124536 | 8 | 228 | 3.2 | 6.4 | 0.10 | 0.74 | 0.36 | 98 | 1011.1 |
| 20260509123043 | 8 | 220 | 1.6 | 9.7 | 0.13 | 0.71 | 0.33 | 98 | 1011.2 |
| 20260509121538 | 8 | 204 | 3.2 | 8.0 | 0.18 | 0.69 | 0.30 | 98 | 1011.4 |
| 20260509120038 | 7 | 213 | 3.2 | 8.0 | 0.23 | 0.66 | 0.28 | 97 | 1011.6 |